Time,TemperatureF,DewpointF,PressureIn,WindDirection,WindDirectionDegrees,WindSpeedMPH,WindSpeedGustMPH,Humidity,HourlyPrecipIn,Conditions,Clouds,dailyrainin,SoftwareType,DateUTC
2013-11-05 00:01:00,76.6,60.8,29.96,ENE,68,8.3,17.0,58,0.00,,---,0.00,VWS V13.01,2013-11-05 05:01:00,
2013-11-05 00:02:00,76.6,60.8,29.96,NE,45,3.1,8.5,58,0.00,,---,0.00,VWS V13.01,2013-11-05 05:02:00,
2013-11-05 00:07:00,76.6,60.8,29.96,NE,45,4.5,10.3,58,0.00,,---,0.00,VWS V13.01,2013-11-05 05:07:00,
2013-11-05 00:12:00,76.6,60.8,29.95,ENE,68,6.5,10.3,58,0.00,,---,0.00,VWS V13.01,2013-11-05 05:12:00,
2013-11-05 00:17:00,76.6,60.8,29.96,NE,45,9.2,10.5,58,0.00,,---,0.00,VWS V13.01,2013-11-05 05:17:00,
2013-11-05 00:22:00,76.6,60.8,29.96,NNE,22,4.0,13.2,58,0.00,,---,0.00,VWS V13.01,2013-11-05 05:22:00,
2013-11-05 00:27:00,76.8,61.9,29.96,NE,45,6.3,15.2,60,0.00,,---,0.00,VWS V13.01,2013-11-05 05:27:00,
2013-11-05 00:32:00,76.8,61.9,29.95,NE,45,11.0,15.2,60,0.00,,---,0.00,VWS V13.01,2013-11-05 05:32:00,
2013-11-05 00:37:00,76.8,61.9,29.95,ENE,68,6.9,15.2,60,0.00,,---,0.00,VWS V13.01,2013-11-05 05:37:00,
2013-11-05 00:42:00,76.8,61.9,29.95,ENE,68,9.2,15.2,60,0.00,,---,0.00,VWS V13.01,2013-11-05 05:42:00,
2013-11-05 00:47:00,77.0,61.6,29.95,East,90,11.0,15.2,59,0.00,,---,0.00,VWS V13.01,2013-11-05 05:47:00,
2013-11-05 00:52:00,76.8,61.4,29.95,ENE,68,10.5,15.2,59,0.00,,---,0.00,VWS V13.01,2013-11-05 05:52:00,
2013-11-05 00:57:00,76.8,61.4,29.95,ENE,68,6.0,15.2,59,0.00,,---,0.00,VWS V13.01,2013-11-05 05:57:00,
2013-11-05 01:02:00,76.8,60.0,29.95,ENE,68,9.0,11.6,56,0.00,,---,0.00,VWS V13.01,2013-11-05 06:02:00,
2013-11-05 01:07:00,77.0,59.6,29.95,ENE,68,4.3,13.6,55,0.00,,---,0.00,VWS V13.01,2013-11-05 06:07:00,
2013-11-05 01:12:00,77.2,59.8,29.95,ENE,68,4.3,13.6,55,0.00,,---,0.00,VWS V13.01,2013-11-05 06:12:00,
2013-11-05 01:17:00,77.2,59.8,29.95,NE,45,4.0,13.6,55,0.00,,---,0.00,VWS V13.01,2013-11-05 06:17:00,
2013-11-05 01:22:00,77.4,59.4,29.95,ENE,68,3.8,14.1,54,0.00,,---,0.00,VWS V13.01,2013-11-05 06:22:00,
2013-11-05 01:27:00,77.2,59.3,29.95,ENE,68,2.0,14.1,54,0.00,,---,0.00,VWS V13.01,2013-11-05 06:27:00,
2013-11-05 01:32:00,76.8,59.5,29.95,NE,45,7.2,14.1,55,0.00,,---,0.00,VWS V13.01,2013-11-05 06:32:00,
2013-11-05 01:37:00,76.8,59.5,29.95,ENE,68,5.1,15.0,55,0.00,,---,0.00,VWS V13.01,2013-11-05 06:37:00,
2013-11-05 01:42:00,76.8,59.5,29.94,NE,45,5.6,15.0,55,0.00,,---,0.00,VWS V13.01,2013-11-05 06:42:00,
2013-11-05 01:47:00,76.8,59.5,29.94,East,90,8.7,15.0,55,0.00,,---,0.00,VWS V13.01,2013-11-05 06:47:00,
2013-11-05 01:52:00,77.2,59.8,29.94,ENE,68,4.3,15.0,55,0.00,,---,0.00,VWS V13.01,2013-11-05 06:52:00,
2013-11-05 01:57:00,77.2,59.8,29.94,ENE,68,2.2,15.0,55,0.00,,---,0.00,VWS V13.01,2013-11-05 06:57:00,
2013-11-05 02:02:00,77.2,60.3,29.94,NE,45,9.4,15.0,56,0.00,,---,0.00,VWS V13.01,2013-11-05 07:02:00,
2013-11-05 02:07:00,77.2,59.8,29.94,NE,45,7.4,9.6,55,0.00,,---,0.00,VWS V13.01,2013-11-05 07:07:00,
2013-11-05 02:12:00,77.2,59.3,29.94,ENE,68,6.7,14.8,54,0.00,,---,0.00,VWS V13.01,2013-11-05 07:12:00,
2013-11-05 02:17:00,77.2,58.7,29.94,NE,45,9.8,15.7,53,0.00,,---,0.00,VWS V13.01,2013-11-05 07:17:00,
2013-11-05 02:22:00,77.4,58.9,29.94,NE,45,5.6,15.7,53,0.00,,---,0.00,VWS V13.01,2013-11-05 07:22:00,
2013-11-05 02:27:00,77.2,58.7,29.94,NE,45,4.3,15.7,53,0.00,,---,0.00,VWS V13.01,2013-11-05 07:27:00,
2013-11-05 02:32:00,77.2,58.7,29.93,East,90,8.3,15.7,53,0.00,,---,0.00,VWS V13.01,2013-11-05 07:32:00,
2013-11-05 02:37:00,77.4,59.4,29.93,ENE,68,3.4,15.7,54,0.00,,---,0.00,VWS V13.01,2013-11-05 07:37:00,
2013-11-05 02:42:00,77.4,59.4,29.93,ENE,68,8.5,15.7,54,0.00,,---,0.00,VWS V13.01,2013-11-05 07:42:00,
2013-11-05 02:47:00,77.4,59.4,29.93,ENE,68,4.7,15.7,54,0.00,,---,0.00,VWS V13.01,2013-11-05 07:47:00,
2013-11-05 02:52:00,77.4,59.4,29.93,NE,45,6.9,15.7,54,0.00,,---,0.00,VWS V13.01,2013-11-05 07:52:00,
2013-11-05 02:57:00,77.4,59.4,29.93,ENE,68,10.5,15.7,54,0.00,,---,0.00,VWS V13.01,2013-11-05 07:57:00,
2013-11-05 03:02:00,77.2,59.3,29.93,NE,45,0.0,9.2,54,0.00,,---,0.00,VWS V13.01,2013-11-05 08:02:00,
2013-11-05 03:07:00,77.2,59.3,29.93,NE,45,6.7,13.6,54,0.00,,---,0.00,VWS V13.01,2013-11-05 08:07:00,
2013-11-05 03:12:00,77.2,59.3,29.93,ENE,68,3.4,13.6,54,0.00,,---,0.00,VWS V13.01,2013-11-05 08:12:00,
2013-11-05 03:17:00,77.0,59.1,29.93,NNE,22,2.5,13.6,54,0.00,,---,0.00,VWS V13.01,2013-11-05 08:17:00,
2013-11-05 03:22:00,77.0,59.6,29.93,ENE,68,6.9,13.6,55,0.00,,---,0.00,VWS V13.01,2013-11-05 08:22:00,
2013-11-05 03:27:00,77.0,59.6,29.93,East,90,4.7,13.6,55,0.00,,---,0.00,VWS V13.01,2013-11-05 08:27:00,
2013-11-05 03:32:00,77.2,59.8,29.94,NE,45,4.9,13.6,55,0.00,,---,0.00,VWS V13.01,2013-11-05 08:32:00,
2013-11-05 03:37:00,77.2,59.8,29.93,ENE,68,4.9,13.6,55,0.00,,---,0.00,VWS V13.01,2013-11-05 08:37:00,
2013-11-05 03:42:00,77.2,59.3,29.93,NE,45,9.6,13.6,54,0.00,,---,0.00,VWS V13.01,2013-11-05 08:42:00,
2013-11-05 03:47:00,77.2,59.8,29.93,ENE,68,5.8,13.6,55,0.00,,---,0.00,VWS V13.01,2013-11-05 08:47:00,
2013-11-05 03:52:00,77.4,60.0,29.93,NE,45,5.6,13.6,55,0.00,,---,0.00,VWS V13.01,2013-11-05 08:52:00,
2013-11-05 03:57:00,77.4,60.0,29.93,ENE,68,6.3,13.6,55,0.00,,---,0.00,VWS V13.01,2013-11-05 08:57:00,
2013-11-05 04:01:00,77.2,59.8,29.93,NE,45,9.8,12.8,55,0.00,,---,0.00,VWS V13.01,2013-11-05 09:01:00,
2013-11-05 04:06:00,77.2,59.8,29.93,ENE,68,4.0,13.9,55,0.00,,---,0.00,VWS V13.01,2013-11-05 09:06:00,
2013-11-05 04:11:00,77.2,60.3,29.93,East,90,8.7,13.9,56,0.00,,---,0.00,VWS V13.01,2013-11-05 09:11:00,
2013-11-05 04:16:00,77.2,60.3,29.93,ENE,68,7.4,13.9,56,0.00,,---,0.00,VWS V13.01,2013-11-05 09:16:00,
2013-11-05 04:21:00,77.2,60.3,29.93,ENE,68,2.2,13.9,56,0.00,,---,0.00,VWS V13.01,2013-11-05 09:21:00,
2013-11-05 04:26:00,77.2,60.3,29.93,ENE,68,9.2,13.9,56,0.00,,---,0.00,VWS V13.01,2013-11-05 09:26:00,
2013-11-05 04:31:00,77.2,60.3,29.93,NE,45,14.5,14.5,56,0.00,,---,0.00,VWS V13.01,2013-11-05 09:31:00,
2013-11-05 04:36:00,77.4,60.0,29.93,East,90,6.5,14.5,55,0.00,,---,0.00,VWS V13.01,2013-11-05 09:36:00,
2013-11-05 04:41:00,77.4,60.0,29.93,ENE,68,3.1,14.5,55,0.00,,---,0.00,VWS V13.01,2013-11-05 09:41:00,
2013-11-05 04:46:00,77.4,60.0,29.93,East,90,12.1,14.5,55,0.00,,---,0.00,VWS V13.01,2013-11-05 09:46:00,
2013-11-05 04:51:00,77.4,60.0,29.93,ENE,68,9.0,14.5,55,0.00,,---,0.00,VWS V13.01,2013-11-05 09:51:00,
2013-11-05 04:56:00,77.5,60.1,29.93,East,90,7.4,15.2,55,0.00,,---,0.00,VWS V13.01,2013-11-05 09:56:00,
2013-11-05 05:01:00,77.4,60.5,29.93,ENE,68,4.3,13.6,56,0.00,,---,0.00,VWS V13.01,2013-11-05 10:01:00,
2013-11-05 05:06:00,77.5,60.1,29.93,ENE,68,9.8,17.5,55,0.00,,---,0.00,VWS V13.01,2013-11-05 10:06:00,
2013-11-05 05:11:00,77.5,59.6,29.93,ENE,68,7.8,17.5,54,0.00,,---,0.00,VWS V13.01,2013-11-05 10:11:00,
2013-11-05 05:16:00,77.5,60.1,29.93,ENE,68,3.6,17.5,55,0.00,,---,0.00,VWS V13.01,2013-11-05 10:16:00,
2013-11-05 05:21:00,77.5,59.6,29.93,ENE,68,10.5,17.5,54,0.00,,---,0.00,VWS V13.01,2013-11-05 10:21:00,
2013-11-05 05:26:00,77.7,59.2,29.93,ENE,68,6.0,17.5,53,0.00,,---,0.00,VWS V13.01,2013-11-05 10:26:00,
2013-11-05 05:31:00,77.7,59.2,29.93,ENE,68,6.7,17.5,53,0.00,,---,0.00,VWS V13.01,2013-11-05 10:31:00,
2013-11-05 05:36:00,77.7,59.2,29.93,ENE,68,9.8,17.5,53,0.00,,---,0.00,VWS V13.01,2013-11-05 10:36:00,
2013-11-05 05:41:00,77.7,59.2,29.93,NE,45,13.0,17.5,53,0.00,,---,0.00,VWS V13.01,2013-11-05 10:41:00,
2013-11-05 05:46:00,77.9,58.9,29.93,ENE,68,7.2,17.5,52,0.00,,---,0.00,VWS V13.01,2013-11-05 10:46:00,
2013-11-05 05:51:00,77.9,58.9,29.93,ESE,112,2.9,17.5,52,0.00,,---,0.00,VWS V13.01,2013-11-05 10:51:00,
2013-11-05 05:56:00,77.9,58.9,29.93,ENE,68,10.3,17.5,52,0.00,,---,0.00,VWS V13.01,2013-11-05 10:56:00,
2013-11-05 06:02:00,77.9,58.9,29.93,ENE,68,8.5,11.4,52,0.00,,---,0.00,VWS V13.01,2013-11-05 11:02:00,
2013-11-05 06:07:00,77.9,58.9,29.93,ENE,68,2.7,12.8,52,0.00,,---,0.00,VWS V13.01,2013-11-05 11:07:00,
2013-11-05 06:12:00,77.9,59.4,29.93,ENE,68,4.9,12.8,53,0.00,,---,0.00,VWS V13.01,2013-11-05 11:12:00,
2013-11-05 06:17:00,77.9,59.4,29.94,ENE,68,4.9,12.8,53,0.00,,---,0.00,VWS V13.01,2013-11-05 11:17:00,
2013-11-05 06:22:00,77.7,59.2,29.94,SE,135,8.1,12.8,53,0.00,,---,0.00,VWS V13.01,2013-11-05 11:22:00,
2013-11-05 06:27:00,77.9,59.4,29.94,NE,45,8.3,13.9,53,0.00,,---,0.00,VWS V13.01,2013-11-05 11:27:00,
2013-11-05 06:32:00,77.9,59.4,29.94,SE,135,4.3,13.9,53,0.00,,---,0.00,VWS V13.01,2013-11-05 11:32:00,
2013-11-05 06:37:00,77.9,59.9,29.94,ESE,112,8.1,13.9,54,0.00,,---,0.00,VWS V13.01,2013-11-05 11:37:00,
2013-11-05 06:42:00,77.9,59.9,29.94,East,90,3.4,13.9,54,0.00,,---,0.00,VWS V13.01,2013-11-05 11:42:00,
2013-11-05 06:47:00,77.9,59.9,29.94,ENE,68,4.0,13.9,54,0.00,,---,0.00,VWS V13.01,2013-11-05 11:47:00,
2013-11-05 06:52:00,77.9,59.9,29.95,ENE,68,9.8,13.9,54,0.00,,---,0.00,VWS V13.01,2013-11-05 11:52:00,
2013-11-05 06:57:00,77.9,59.9,29.95,East,90,8.1,13.9,54,0.00,,---,0.00,VWS V13.01,2013-11-05 11:57:00,
2013-11-05 07:02:00,77.9,59.9,29.95,ENE,68,9.2,11.0,54,0.00,,---,0.00,VWS V13.01,2013-11-05 12:02:00,
2013-11-05 07:07:00,77.9,59.9,29.95,ENE,68,4.7,11.0,54,0.00,,---,0.00,VWS V13.01,2013-11-05 12:07:00,
2013-11-05 07:12:00,77.9,59.9,29.95,East,90,6.5,13.9,54,0.00,,---,0.00,VWS V13.01,2013-11-05 12:12:00,
2013-11-05 07:17:00,77.9,59.9,29.95,East,90,5.4,15.4,54,0.00,,---,0.00,VWS V13.01,2013-11-05 12:17:00,
2013-11-05 07:22:00,78.1,60.1,29.95,NE,45,0.0,15.4,54,0.00,,---,0.00,VWS V13.01,2013-11-05 12:22:00,
2013-11-05 07:27:00,78.1,60.1,29.96,NE,45,0.0,15.4,54,0.00,,---,0.00,VWS V13.01,2013-11-05 12:27:00,
2013-11-05 07:32:00,78.3,60.3,29.96,NE,45,0.0,18.3,54,0.00,,---,0.00,VWS V13.01,2013-11-05 12:32:00,
2013-11-05 07:37:00,78.3,60.3,29.96,ENE,68,11.4,18.3,54,0.00,,---,0.00,VWS V13.01,2013-11-05 12:37:00,
2013-11-05 07:42:00,78.3,60.3,29.96,ENE,68,10.1,18.3,54,0.00,,---,0.00,VWS V13.01,2013-11-05 12:42:00,
2013-11-05 07:47:00,78.3,60.3,29.97,ENE,68,4.5,18.3,54,0.00,,---,0.00,VWS V13.01,2013-11-05 12:47:00,
2013-11-05 07:52:00,78.3,63.2,29.97,East,90,8.3,18.3,60,0.00,,---,0.00,VWS V13.01,2013-11-05 12:52:00,
2013-11-05 07:57:00,78.4,63.4,29.96,NE,45,9.8,18.3,60,0.00,,---,0.00,VWS V13.01,2013-11-05 12:57:00,
2013-11-05 08:02:00,78.6,63.1,29.97,ENE,68,10.3,10.5,59,0.00,,---,0.00,VWS V13.01,2013-11-05 13:02:00,
2013-11-05 08:07:00,78.8,63.3,29.97,East,90,6.9,18.1,59,0.00,,---,0.00,VWS V13.01,2013-11-05 13:07:00,
2013-11-05 08:12:00,79.0,63.4,29.98,ENE,68,6.3,18.1,59,0.00,,---,0.00,VWS V13.01,2013-11-05 13:12:00,
2013-11-05 08:17:00,79.2,63.6,29.97,ENE,68,3.8,18.1,59,0.00,,---,0.00,VWS V13.01,2013-11-05 13:17:00,
2013-11-05 08:22:00,79.2,63.6,29.97,ENE,68,4.0,18.1,59,0.00,,---,0.00,VWS V13.01,2013-11-05 13:22:00,
2013-11-05 08:27:00,79.5,62.5,29.97,ENE,68,6.0,18.1,56,0.00,,---,0.00,VWS V13.01,2013-11-05 13:27:00,
2013-11-05 08:32:00,79.5,62.5,29.98,ENE,68,3.1,18.1,56,0.00,,---,0.00,VWS V13.01,2013-11-05 13:32:00,
2013-11-05 08:37:00,79.9,62.8,29.98,NE,45,10.3,18.1,56,0.00,,---,0.00,VWS V13.01,2013-11-05 13:37:00,
2013-11-05 08:42:00,80.2,63.1,29.98,ENE,68,1.3,18.1,56,0.00,,---,0.00,VWS V13.01,2013-11-05 13:42:00,
2013-11-05 08:47:00,80.6,63.5,29.98,ENE,68,6.3,18.1,56,0.00,,---,0.00,VWS V13.01,2013-11-05 13:47:00,
2013-11-05 08:52:00,80.4,63.3,29.98,ENE,68,6.0,18.1,56,0.00,,---,0.00,VWS V13.01,2013-11-05 13:52:00,
2013-11-05 08:57:00,80.2,63.1,29.98,East,90,6.5,18.1,56,0.00,,---,0.00,VWS V13.01,2013-11-05 13:57:00,
2013-11-05 09:02:00,80.2,63.1,29.99,East,90,5.1,16.6,56,0.00,,---,0.00,VWS V13.01,2013-11-05 14:02:00,
2013-11-05 09:07:00,80.1,63.0,29.98,NE,45,11.4,16.6,56,0.00,,---,0.00,VWS V13.01,2013-11-05 14:07:00,
2013-11-05 09:12:00,80.1,63.0,29.99,NE,45,7.6,18.3,56,0.00,,---,0.00,VWS V13.01,2013-11-05 14:12:00,
2013-11-05 09:17:00,80.1,63.0,29.99,ENE,68,4.0,18.3,56,0.00,,---,0.00,VWS V13.01,2013-11-05 14:17:00,
2013-11-05 09:22:00,80.1,63.0,29.99,East,90,5.4,18.3,56,0.00,,---,0.00,VWS V13.01,2013-11-05 14:22:00,
2013-11-05 09:27:00,80.2,62.6,29.99,East,90,6.3,18.3,55,0.00,,---,0.00,VWS V13.01,2013-11-05 14:27:00,
2013-11-05 09:32:00,80.6,63.0,29.99,East,90,9.4,18.3,55,0.00,,---,0.00,VWS V13.01,2013-11-05 14:32:00,
2013-11-05 09:37:00,80.8,63.1,29.99,ENE,68,9.2,18.3,55,0.00,,---,0.00,VWS V13.01,2013-11-05 14:37:00,
2013-11-05 09:42:00,81.0,63.3,29.99,East,90,9.0,18.3,55,0.00,,---,0.00,VWS V13.01,2013-11-05 14:42:00,
2013-11-05 09:47:00,81.1,63.5,29.99,ENE,68,10.1,18.3,55,0.00,,---,0.00,VWS V13.01,2013-11-05 14:47:00,
2013-11-05 09:52:00,81.3,62.0,30.00,SE,135,11.2,18.3,52,0.00,,---,0.00,VWS V13.01,2013-11-05 14:52:00,
2013-11-05 09:57:00,81.5,62.2,29.99,East,90,17.2,18.3,52,0.00,,---,0.00,VWS V13.01,2013-11-05 14:57:00,
2013-11-05 10:02:00,81.7,62.4,30.00,East,90,13.0,13.0,52,0.00,,---,0.00,VWS V13.01,2013-11-05 15:02:00,
2013-11-05 10:07:00,81.7,62.4,30.00,ESE,112,16.8,18.8,52,0.00,,---,0.00,VWS V13.01,2013-11-05 15:07:00,
2013-11-05 10:12:00,81.7,62.4,29.99,ENE,68,5.6,18.8,52,0.00,,---,0.00,VWS V13.01,2013-11-05 15:12:00,
2013-11-05 10:17:00,81.7,62.4,29.99,East,90,9.6,18.8,52,0.00,,---,0.00,VWS V13.01,2013-11-05 15:17:00,
2013-11-05 10:22:00,82.0,62.7,29.99,ENE,68,5.1,18.8,52,0.00,,---,0.00,VWS V13.01,2013-11-05 15:22:00,
2013-11-05 10:27:00,82.2,62.9,29.99,ENE,68,2.0,18.8,52,0.00,,---,0.00,VWS V13.01,2013-11-05 15:27:00,
2013-11-05 10:32:00,82.0,62.7,29.99,ENE,68,10.3,18.8,52,0.00,,---,0.00,VWS V13.01,2013-11-05 15:32:00,
2013-11-05 10:37:00,82.6,63.2,29.99,ESE,112,5.8,18.8,52,0.00,,---,0.00,VWS V13.01,2013-11-05 15:37:00,
2013-11-05 10:42:00,82.6,63.2,29.99,ESE,112,13.4,18.8,52,0.00,,---,0.00,VWS V13.01,2013-11-05 15:42:00,
2013-11-05 10:47:00,82.8,63.4,29.98,ESE,112,6.3,18.8,52,0.00,,---,0.00,VWS V13.01,2013-11-05 15:47:00,
2013-11-05 10:52:00,82.9,61.2,29.98,NE,45,10.3,18.8,48,0.00,,---,0.00,VWS V13.01,2013-11-05 15:52:00,
2013-11-05 10:57:00,82.9,61.2,29.98,ENE,68,5.1,18.8,48,0.00,,---,0.00,VWS V13.01,2013-11-05 15:57:00,
2013-11-05 11:02:00,82.9,61.2,29.98,East,90,15.9,15.9,48,0.00,,---,0.00,VWS V13.01,2013-11-05 16:02:00,
2013-11-05 11:07:00,83.1,61.4,29.98,East,90,6.0,15.9,48,0.00,,---,0.00,VWS V13.01,2013-11-05 16:07:00,
2013-11-05 11:12:00,83.1,61.4,29.98,East,90,3.8,15.9,48,0.00,,---,0.00,VWS V13.01,2013-11-05 16:12:00,
2013-11-05 11:17:00,83.1,61.4,29.98,ESE,112,4.5,15.9,48,0.00,,---,0.00,VWS V13.01,2013-11-05 16:17:00,
2013-11-05 11:22:00,82.9,61.2,29.98,ESE,112,8.3,15.9,48,0.00,,---,0.00,VWS V13.01,2013-11-05 16:22:00,
2013-11-05 11:27:00,82.9,61.2,29.97,ESE,112,6.7,15.9,48,0.00,,---,0.00,VWS V13.01,2013-11-05 16:27:00,
2013-11-05 11:32:00,82.9,61.2,29.97,South,180,6.9,17.7,48,0.00,,---,0.00,VWS V13.01,2013-11-05 16:32:00,
2013-11-05 11:37:00,82.9,60.0,29.97,East,90,6.3,20.4,46,0.00,,---,0.00,VWS V13.01,2013-11-05 16:37:00,
2013-11-05 11:42:00,83.1,60.8,29.97,ENE,68,7.6,20.4,47,0.00,,---,0.00,VWS V13.01,2013-11-05 16:42:00,
2013-11-05 11:47:00,83.1,60.2,29.96,East,90,2.7,20.4,46,0.00,,---,0.00,VWS V13.01,2013-11-05 16:47:00,
2013-11-05 11:52:00,83.3,61.0,29.96,ENE,68,7.2,20.4,47,0.00,,---,0.00,VWS V13.01,2013-11-05 16:52:00,
2013-11-05 11:57:00,83.5,61.2,29.96,ENE,68,6.7,20.4,47,0.00,,---,0.00,VWS V13.01,2013-11-05 16:57:00,
2013-11-05 12:02:00,83.7,60.7,29.96,NE,45,8.1,13.4,46,0.00,,---,0.00,VWS V13.01,2013-11-05 17:02:00,
2013-11-05 12:07:00,83.3,60.4,29.96,East,90,12.5,15.0,46,0.00,,---,0.00,VWS V13.01,2013-11-05 17:07:00,
2013-11-05 12:12:00,83.1,60.2,29.96,East,90,14.5,19.5,46,0.00,,---,0.00,VWS V13.01,2013-11-05 17:12:00,
2013-11-05 12:17:00,83.1,60.2,29.96,ENE,68,5.1,19.5,46,0.00,,---,0.00,VWS V13.01,2013-11-05 17:17:00,
2013-11-05 12:22:00,82.9,61.2,29.96,ENE,68,4.3,19.5,48,0.00,,---,0.00,VWS V13.01,2013-11-05 17:22:00,
2013-11-05 12:27:00,82.8,61.1,29.96,NE,45,10.5,19.5,48,0.00,,---,0.00,VWS V13.01,2013-11-05 17:27:00,
2013-11-05 12:32:00,82.6,60.9,29.96,ENE,68,4.3,19.5,48,0.00,,---,0.00,VWS V13.01,2013-11-05 17:32:00,
2013-11-05 12:37:00,82.6,60.9,29.96,East,90,3.8,19.5,48,0.00,,---,0.00,VWS V13.01,2013-11-05 17:37:00,
2013-11-05 12:42:00,82.6,60.9,29.95,ENE,68,4.0,19.5,48,0.00,,---,0.00,VWS V13.01,2013-11-05 17:42:00,
2013-11-05 12:47:00,82.6,62.1,29.95,ENE,68,0.0,19.5,50,0.00,,---,0.00,VWS V13.01,2013-11-05 17:47:00,
2013-11-05 12:52:00,82.6,62.1,29.95,East,90,5.6,19.5,50,0.00,,---,0.00,VWS V13.01,2013-11-05 17:52:00,
2013-11-05 12:57:00,82.2,61.2,29.95,ENE,68,6.7,19.5,49,0.00,,---,0.00,VWS V13.01,2013-11-05 17:57:00,
2013-11-05 13:02:00,82.2,61.2,29.95,ENE,68,9.8,13.0,49,0.00,,---,0.00,VWS V13.01,2013-11-05 18:02:00,
2013-11-05 13:07:00,82.0,61.0,29.94,ENE,68,8.1,17.5,49,0.00,,---,0.00,VWS V13.01,2013-11-05 18:07:00,
2013-11-05 13:12:00,81.9,60.8,29.94,East,90,4.7,17.5,49,0.00,,---,0.00,VWS V13.01,2013-11-05 18:12:00,
2013-11-05 13:17:00,82.2,61.2,29.94,ENE,68,19.7,19.7,49,0.00,,---,0.00,VWS V13.01,2013-11-05 18:17:00,
2013-11-05 13:22:00,82.2,61.8,29.94,NE,45,5.8,19.7,50,0.00,,---,0.00,VWS V13.01,2013-11-05 18:22:00,
2013-11-05 13:27:00,82.2,61.8,29.94,East,90,4.7,19.7,50,0.00,,---,0.00,VWS V13.01,2013-11-05 18:27:00,
2013-11-05 13:32:00,81.9,62.5,29.94,ENE,68,4.7,19.7,52,0.00,,---,0.00,VWS V13.01,2013-11-05 18:32:00,
2013-11-05 13:36:00,81.7,62.4,29.94,ENE,68,7.8,19.7,52,0.00,,---,0.00,VWS V13.01,2013-11-05 18:36:00,
2013-11-05 13:41:00,81.7,62.4,29.94,ENE,68,2.0,19.7,52,0.00,,---,0.00,VWS V13.01,2013-11-05 18:41:00,
2013-11-05 13:46:00,81.7,62.9,29.94,ENE,68,8.3,19.7,53,0.00,,---,0.00,VWS V13.01,2013-11-05 18:46:00,
2013-11-05 13:51:00,81.5,62.7,29.94,ENE,68,8.7,19.7,53,0.00,,---,0.00,VWS V13.01,2013-11-05 18:51:00,
2013-11-05 13:56:00,81.5,62.7,29.94,ENE,68,11.2,19.7,53,0.00,,---,0.00,VWS V13.01,2013-11-05 18:56:00,
2013-11-05 14:01:00,81.3,62.6,29.93,ENE,68,9.8,12.1,53,0.00,,---,0.00,VWS V13.01,2013-11-05 19:01:00,
2013-11-05 14:06:00,81.3,62.6,29.93,SE,135,5.6,12.1,53,0.00,,---,0.00,VWS V13.01,2013-11-05 19:06:00,
2013-11-05 14:11:00,81.5,62.7,29.93,ENE,68,7.4,16.6,53,0.00,,---,0.00,VWS V13.01,2013-11-05 19:11:00,
2013-11-05 14:16:00,81.3,62.6,29.93,ENE,68,8.3,16.6,53,0.00,,---,0.00,VWS V13.01,2013-11-05 19:16:00,
2013-11-05 14:21:00,81.5,62.7,29.93,ENE,68,9.2,16.6,53,0.00,,---,0.00,VWS V13.01,2013-11-05 19:21:00,
2013-11-05 14:26:00,81.9,63.1,29.93,ENE,68,0.0,16.6,53,0.00,,---,0.00,VWS V13.01,2013-11-05 19:26:00,
2013-11-05 14:31:00,82.2,63.4,29.93,ENE,68,2.9,16.6,53,0.00,,---,0.00,VWS V13.01,2013-11-05 19:31:00,
2013-11-05 14:36:00,82.8,63.9,29.93,ENE,68,6.5,16.6,53,0.00,,---,0.00,VWS V13.01,2013-11-05 19:36:00,
2013-11-05 14:41:00,83.1,64.2,29.93,East,90,4.0,16.6,53,0.00,,---,0.00,VWS V13.01,2013-11-05 19:41:00,
2013-11-05 14:46:00,83.1,64.2,29.93,East,90,6.5,16.6,53,0.00,,---,0.00,VWS V13.01,2013-11-05 19:46:00,
2013-11-05 14:51:00,83.1,64.2,29.93,SE,135,10.1,16.6,53,0.00,,---,0.00,VWS V13.01,2013-11-05 19:51:00,
2013-11-05 14:56:00,82.8,63.9,29.93,East,90,4.0,16.6,53,0.00,,---,0.00,VWS V13.01,2013-11-05 19:56:00,
2013-11-05 15:01:00,82.2,65.0,29.93,SE,135,3.1,6.9,56,0.00,,---,0.00,VWS V13.01,2013-11-05 20:01:00,
2013-11-05 15:06:00,82.0,64.8,29.93,ENE,68,13.0,13.0,56,0.00,,---,0.00,VWS V13.01,2013-11-05 20:06:00,
2013-11-05 15:11:00,81.5,64.3,29.93,ESE,112,3.6,13.0,56,0.00,,---,0.00,VWS V13.01,2013-11-05 20:11:00,
2013-11-05 15:16:00,81.5,64.3,29.92,ESE,112,4.9,13.0,56,0.00,,---,0.00,VWS V13.01,2013-11-05 20:16:00,
2013-11-05 15:21:00,81.3,64.1,29.93,SE,135,3.8,13.0,56,0.00,,---,0.00,VWS V13.01,2013-11-05 20:21:00,
2013-11-05 15:26:00,81.3,64.1,29.93,SSE,158,0.0,13.0,56,0.00,,---,0.00,VWS V13.01,2013-11-05 20:26:00,
2013-11-05 15:31:00,81.3,65.6,29.93,SSE,158,0.0,13.0,59,0.00,,---,0.00,VWS V13.01,2013-11-05 20:31:00,
2013-11-05 15:36:00,81.3,65.6,29.92,SE,135,0.0,13.0,59,0.00,,---,0.00,VWS V13.01,2013-11-05 20:36:00,
2013-11-05 15:41:00,81.3,65.6,29.92,ESE,112,1.3,13.0,59,0.00,,---,0.00,VWS V13.01,2013-11-05 20:41:00,
2013-11-05 15:46:00,81.3,65.6,29.92,East,90,5.4,13.0,59,0.00,,---,0.00,VWS V13.01,2013-11-05 20:46:00,
2013-11-05 15:51:00,81.3,65.6,29.92,East,90,8.3,13.0,59,0.00,,---,0.00,VWS V13.01,2013-11-05 20:51:00,
2013-11-05 15:56:00,81.3,65.6,29.92,East,90,3.8,13.9,59,0.00,,---,0.00,VWS V13.01,2013-11-05 20:56:00,
2013-11-05 16:01:00,81.3,65.6,29.92,ENE,68,3.4,10.3,59,0.00,,---,0.00,VWS V13.01,2013-11-05 21:01:00,
2013-11-05 16:06:00,81.3,65.6,29.93,East,90,0.0,13.9,59,0.00,,---,0.00,VWS V13.01,2013-11-05 21:06:00,
2013-11-05 16:11:00,80.8,65.1,29.93,East,90,4.9,13.9,59,0.00,,---,0.00,VWS V13.01,2013-11-05 21:11:00,
2013-11-05 16:16:00,80.1,64.5,29.92,ESE,112,10.5,13.9,59,0.00,,---,0.00,VWS V13.01,2013-11-05 21:16:00,
2013-11-05 16:21:00,79.9,64.3,29.93,ESE,112,4.3,13.9,59,0.00,,---,0.00,VWS V13.01,2013-11-05 21:21:00,
2013-11-05 16:26:00,79.5,64.0,29.92,SE,135,0.0,13.9,59,0.00,,---,0.00,VWS V13.01,2013-11-05 21:26:00,
2013-11-05 16:31:00,79.3,63.8,29.93,ENE,68,0.0,13.9,59,0.00,,---,0.00,VWS V13.01,2013-11-05 21:31:00,
2013-11-05 16:36:00,79.3,63.8,29.93,ESE,112,6.7,13.9,59,0.00,,---,0.00,VWS V13.01,2013-11-05 21:36:00,
2013-11-05 16:41:00,79.2,65.5,29.93,ENE,68,0.0,13.9,63,0.00,,---,0.00,VWS V13.01,2013-11-05 21:41:00,
2013-11-05 16:46:00,79.2,65.5,29.93,ENE,68,5.8,13.9,63,0.00,,---,0.00,VWS V13.01,2013-11-05 21:46:00,
2013-11-05 16:51:00,79.0,65.3,29.93,SE,135,0.0,13.9,63,0.00,,---,0.00,VWS V13.01,2013-11-05 21:51:00,
2013-11-05 16:56:00,79.2,65.5,29.93,ESE,112,4.3,13.9,63,0.00,,---,0.00,VWS V13.01,2013-11-05 21:56:00,
2013-11-05 17:01:00,79.2,65.5,29.93,East,90,0.0,3.1,63,0.00,,---,0.00,VWS V13.01,2013-11-05 22:01:00,
2013-11-05 17:06:00,79.2,65.5,29.93,ENE,68,0.0,6.0,63,0.00,,---,0.00,VWS V13.01,2013-11-05 22:06:00,
2013-11-05 17:11:00,79.2,65.5,29.92,ENE,68,3.6,6.0,63,0.00,,---,0.00,VWS V13.01,2013-11-05 22:11:00,
2013-11-05 17:16:00,79.2,65.0,29.93,ENE,68,5.1,6.0,62,0.00,,---,0.00,VWS V13.01,2013-11-05 22:16:00,
2013-11-05 17:21:00,79.5,64.9,29.93,ENE,68,8.7,11.6,61,0.00,,---,0.00,VWS V13.01,2013-11-05 22:21:00,
2013-11-05 17:26:00,79.5,64.9,29.93,ESE,112,4.3,11.9,61,0.00,,---,0.00,VWS V13.01,2013-11-05 22:26:00,
2013-11-05 17:31:00,79.7,65.1,29.93,NE,45,8.1,11.9,61,0.00,,---,0.00,VWS V13.01,2013-11-05 22:31:00,
2013-11-05 17:36:00,79.7,65.1,29.93,ESE,112,6.9,11.9,61,0.00,,---,0.00,VWS V13.01,2013-11-05 22:36:00,
2013-11-05 17:41:00,79.7,64.6,29.93,SE,135,7.4,15.4,60,0.00,,---,0.00,VWS V13.01,2013-11-05 22:41:00,
2013-11-05 17:46:00,79.7,64.6,29.93,ENE,68,2.9,15.4,60,0.00,,---,0.00,VWS V13.01,2013-11-05 22:46:00,
2013-11-05 17:51:00,79.7,65.1,29.93,ENE,68,4.5,15.4,61,0.00,,---,0.00,VWS V13.01,2013-11-05 22:51:00,
2013-11-05 17:56:00,79.5,65.8,29.93,ENE,68,10.5,15.4,63,0.00,,---,0.00,VWS V13.01,2013-11-05 22:56:00,
2013-11-05 18:01:00,79.5,65.8,29.93,ENE,68,4.3,7.2,63,0.00,,---,0.00,VWS V13.01,2013-11-05 23:01:00,
2013-11-05 18:06:00,79.3,66.1,29.93,ENE,68,4.5,9.2,64,0.00,,---,0.00,VWS V13.01,2013-11-05 23:06:00,
2013-11-05 18:11:00,79.2,65.9,29.93,SE,135,6.3,9.2,64,0.00,,---,0.00,VWS V13.01,2013-11-05 23:11:00,
2013-11-05 18:16:00,79.0,64.9,29.95,SE,135,6.9,10.1,62,0.00,,---,0.00,VWS V13.01,2013-11-05 23:16:00,
2013-11-05 18:21:00,78.3,64.2,29.94,SSE,158,9.0,15.7,62,0.00,,---,0.00,VWS V13.01,2013-11-05 23:21:00,
2013-11-05 18:26:00,77.4,64.2,29.95,ENE,68,2.0,15.7,64,0.00,,---,0.00,VWS V13.01,2013-11-05 23:26:00,
2013-11-05 18:31:00,76.6,64.0,29.94,East,90,0.0,15.7,65,0.00,,---,0.00,VWS V13.01,2013-11-05 23:31:00,
2013-11-05 18:36:00,76.1,63.9,29.94,SE,135,1.8,15.7,66,0.00,,---,0.00,VWS V13.01,2013-11-05 23:36:00,
2013-11-05 18:41:00,75.7,64.9,29.94,SSE,158,4.7,15.7,69,0.00,,---,0.00,VWS V13.01,2013-11-05 23:41:00,
2013-11-05 18:46:00,75.6,64.7,29.94,East,90,0.0,15.7,69,0.00,,---,0.00,VWS V13.01,2013-11-05 23:46:00,
2013-11-05 18:51:00,75.4,64.9,29.94,SE,135,0.0,15.7,70,0.00,,---,0.00,VWS V13.01,2013-11-05 23:51:00,
2013-11-05 18:56:00,75.4,64.9,29.94,SE,135,0.0,15.7,70,0.00,,---,0.00,VWS V13.01,2013-11-05 23:56:00,
2013-11-05 19:01:00,75.4,65.3,29.95,SE,135,0.0,0.0,71,0.00,,---,0.00,VWS V13.01,2013-11-06 00:01:00,
2013-11-05 19:06:00,75.4,65.7,29.94,ENE,68,0.4,5.6,72,0.00,,---,0.00,VWS V13.01,2013-11-06 00:06:00,
2013-11-05 19:11:00,75.6,66.7,29.95,ENE,68,2.0,9.8,74,0.00,,---,0.00,VWS V13.01,2013-11-06 00:11:00,
2013-11-05 19:16:00,76.6,67.7,29.95,SE,135,0.0,9.8,74,0.00,,---,0.00,VWS V13.01,2013-11-06 00:16:00,
2013-11-05 19:21:00,76.1,66.8,29.95,ENE,68,2.7,9.8,73,0.00,,---,0.00,VWS V13.01,2013-11-06 00:21:00,
2013-11-05 19:26:00,76.8,67.5,29.95,ENE,68,0.2,11.6,73,0.00,,---,0.00,VWS V13.01,2013-11-06 00:26:00,
2013-11-05 19:31:00,77.2,67.9,29.95,ENE,68,2.7,11.6,73,0.00,,---,0.00,VWS V13.01,2013-11-06 00:31:00,
2013-11-05 19:36:00,77.5,68.2,29.95,ESE,112,2.7,11.6,73,0.00,,---,0.00,VWS V13.01,2013-11-06 00:36:00,
2013-11-05 19:41:00,77.7,68.4,29.95,East,90,7.4,11.6,73,0.00,,---,0.00,VWS V13.01,2013-11-06 00:41:00,
2013-11-05 19:46:00,77.9,66.5,29.95,ESE,112,3.1,11.6,68,0.00,,---,0.00,VWS V13.01,2013-11-06 00:46:00,
2013-11-05 19:51:00,78.1,66.7,29.95,East,90,7.4,11.6,68,0.00,,---,0.00,VWS V13.01,2013-11-06 00:51:00,
2013-11-05 19:56:00,78.3,66.8,29.96,ENE,68,7.4,14.1,68,0.00,,---,0.00,VWS V13.01,2013-11-06 00:56:00,
2013-11-05 20:01:00,78.3,66.8,29.96,ESE,112,7.4,15.9,68,0.00,,---,0.00,VWS V13.01,2013-11-06 01:01:00,
2013-11-05 20:06:00,78.1,66.7,29.96,SE,135,5.4,15.9,68,0.00,,---,0.00,VWS V13.01,2013-11-06 01:06:00,
2013-11-05 20:11:00,77.9,63.8,29.96,ESE,112,5.6,15.9,62,0.00,,---,0.00,VWS V13.01,2013-11-06 01:11:00,
2013-11-05 20:16:00,77.9,63.8,29.96,SSE,158,4.9,15.9,62,0.00,,---,0.00,VWS V13.01,2013-11-06 01:16:00,
2013-11-05 20:21:00,77.9,63.8,29.96,ENE,68,7.8,15.9,62,0.00,,---,0.00,VWS V13.01,2013-11-06 01:21:00,
2013-11-05 20:26:00,77.9,63.8,29.96,ENE,68,6.9,15.9,62,0.00,,---,0.00,VWS V13.01,2013-11-06 01:26:00,
2013-11-05 20:31:00,78.3,64.2,29.96,East,90,8.5,15.9,62,0.00,,---,0.00,VWS V13.01,2013-11-06 01:31:00,
2013-11-05 20:36:00,78.1,64.0,29.96,NE,45,5.6,15.9,62,0.00,,---,0.00,VWS V13.01,2013-11-06 01:36:00,
2013-11-05 20:41:00,78.1,64.0,29.96,ENE,68,4.0,15.9,62,0.00,,---,0.00,VWS V13.01,2013-11-06 01:41:00,
2013-11-05 20:46:00,78.1,64.9,29.96,ESE,112,5.1,15.9,64,0.00,,---,0.00,VWS V13.01,2013-11-06 01:46:00,
2013-11-05 20:51:00,78.1,64.9,29.96,ENE,68,6.7,15.9,64,0.00,,---,0.00,VWS V13.01,2013-11-06 01:51:00,
2013-11-05 20:56:00,78.3,65.1,29.96,ENE,68,7.6,18.6,64,0.00,,---,0.00,VWS V13.01,2013-11-06 01:56:00,
2013-11-05 21:01:00,78.3,65.1,29.96,East,90,4.7,7.2,64,0.00,,---,0.00,VWS V13.01,2013-11-06 02:01:00,
2013-11-05 21:06:00,78.3,65.1,29.97,ESE,112,1.6,12.8,64,0.00,,---,0.00,VWS V13.01,2013-11-06 02:06:00,
2013-11-05 21:11:00,78.4,65.3,29.97,East,90,8.5,13.0,64,0.00,,---,0.00,VWS V13.01,2013-11-06 02:11:00,
2013-11-05 21:16:00,78.4,65.3,29.97,ENE,68,10.5,13.0,64,0.00,,---,0.00,VWS V13.01,2013-11-06 02:16:00,
2013-11-05 21:21:00,78.3,65.1,29.97,ENE,68,4.5,13.4,64,0.00,,---,0.00,VWS V13.01,2013-11-06 02:21:00,
2013-11-05 21:26:00,78.4,64.8,29.97,East,90,6.0,15.2,63,0.00,,---,0.00,VWS V13.01,2013-11-06 02:26:00,
2013-11-05 21:31:00,78.4,64.8,29.97,NE,45,13.6,16.1,63,0.00,,---,0.00,VWS V13.01,2013-11-06 02:31:00,
2013-11-05 21:36:00,78.4,64.8,29.97,ENE,68,6.7,16.1,63,0.00,,---,0.00,VWS V13.01,2013-11-06 02:36:00,
2013-11-05 21:41:00,78.4,64.8,29.97,ENE,68,2.7,16.1,63,0.00,,---,0.00,VWS V13.01,2013-11-06 02:41:00,
2013-11-05 21:46:00,78.3,64.6,29.97,East,90,5.6,16.1,63,0.00,,---,0.00,VWS V13.01,2013-11-06 02:46:00,
2013-11-05 21:51:00,78.3,64.6,29.97,ENE,68,5.6,16.1,63,0.00,,---,0.00,VWS V13.01,2013-11-06 02:51:00,
2013-11-05 21:56:00,78.3,64.6,29.97,East,90,3.1,16.1,63,0.00,,---,0.00,VWS V13.01,2013-11-06 02:56:00,
2013-11-05 22:01:00,78.3,64.6,29.97,ESE,112,8.1,10.5,63,0.00,,---,0.00,VWS V13.01,2013-11-06 03:01:00,
2013-11-05 22:06:00,78.3,64.6,29.97,ENE,68,2.5,13.6,63,0.00,,---,0.00,VWS V13.01,2013-11-06 03:06:00,
2013-11-05 22:11:00,78.3,64.6,29.97,ENE,68,4.9,13.6,63,0.00,,---,0.00,VWS V13.01,2013-11-06 03:11:00,
2013-11-05 22:16:00,78.3,64.6,29.97,East,90,10.7,13.6,63,0.00,,---,0.00,VWS V13.01,2013-11-06 03:16:00,
2013-11-05 22:21:00,78.3,64.6,29.97,ENE,68,1.8,13.6,63,0.00,,---,0.00,VWS V13.01,2013-11-06 03:21:00,
2013-11-05 22:26:00,78.3,64.6,29.97,ENE,68,4.5,13.6,63,0.00,,---,0.00,VWS V13.01,2013-11-06 03:26:00,
2013-11-05 22:31:00,78.3,64.6,29.97,ENE,68,4.9,13.6,63,0.00,,---,0.00,VWS V13.01,2013-11-06 03:31:00,
2013-11-05 22:36:00,78.3,64.6,29.97,ENE,68,3.6,13.6,63,0.00,,---,0.00,VWS V13.01,2013-11-06 03:36:00,
2013-11-05 22:41:00,78.3,64.6,29.97,East,90,2.7,13.6,63,0.00,,---,0.00,VWS V13.01,2013-11-06 03:41:00,
2013-11-05 22:46:00,78.1,64.5,29.97,NE,45,7.8,13.6,63,0.00,,---,0.00,VWS V13.01,2013-11-06 03:46:00,
2013-11-05 22:51:00,77.9,64.3,29.97,ESE,112,3.4,13.6,63,0.00,,---,0.00,VWS V13.01,2013-11-06 03:51:00,
2013-11-05 22:56:00,78.1,64.5,29.97,ENE,68,9.6,13.6,63,0.00,,---,0.00,VWS V13.01,2013-11-06 03:56:00,
2013-11-05 23:01:00,78.3,64.6,29.96,ENE,68,4.5,8.1,63,0.00,,---,0.00,VWS V13.01,2013-11-06 04:01:00,
2013-11-05 23:06:00,78.1,64.5,29.97,ENE,68,6.3,14.1,63,0.00,,---,0.00,VWS V13.01,2013-11-06 04:06:00,
2013-11-05 23:11:00,78.3,64.6,29.96,East,90,5.6,14.1,63,0.00,,---,0.00,VWS V13.01,2013-11-06 04:11:00,
2013-11-05 23:16:00,78.3,64.6,29.96,East,90,5.4,14.1,63,0.00,,---,0.00,VWS V13.01,2013-11-06 04:16:00,
2013-11-05 23:21:00,78.1,64.5,29.96,East,90,9.8,14.1,63,0.00,,---,0.00,VWS V13.01,2013-11-06 04:21:00,
2013-11-05 23:26:00,78.1,64.5,29.96,East,90,6.3,14.1,63,0.00,,---,0.00,VWS V13.01,2013-11-06 04:26:00,
2013-11-05 23:31:00,78.3,64.6,29.96,ENE,68,4.9,14.1,63,0.00,,---,0.00,VWS V13.01,2013-11-06 04:31:00,
2013-11-05 23:36:00,78.3,64.6,29.96,SE,135,5.6,14.1,63,0.00,,---,0.00,VWS V13.01,2013-11-06 04:36:00,
2013-11-05 23:41:00,78.3,64.6,29.96,ENE,68,9.4,14.1,63,0.00,,---,0.00,VWS V13.01,2013-11-06 04:41:00,
2013-11-05 23:46:00,78.3,64.6,29.95,ENE,68,9.2,14.1,63,0.00,,---,0.00,VWS V13.01,2013-11-06 04:46:00,
2013-11-05 23:51:00,78.1,64.5,29.95,ENE,68,5.8,14.1,63,0.00,,---,0.00,VWS V13.01,2013-11-06 04:51:00,
2013-11-05 23:56:00,77.9,64.3,29.95,ENE,68,0.0,14.1,63,0.00,,---,0.00,VWS V13.01,2013-11-06 04:56:00,